STARLINK-3130 (49437 NORAD) Tracking and Keplerian Element Data

This shows tracking and keplerian element data for the satellite.

Feedback or suggestion? Click here.




ElementValue
Catalog49437
NameSTARLINK-3130
Epoch Orbit479
Epoch Day339.91667824
Epoch Year2021
RAAN22.2352
Inclination53.2186
Eccentricity0.0001936
Argument of Perigee22.979
Mean Anonmoly46.0793
Mean Motion15.73162421
Decay Rate0.00048244
L11 49437U 21104AF 21339.91667824 .00048244 00000+0 34673-3 0 9993
L22 49437 53.2186 22.2352 0001936 22.9790 46.0793 15.73162421 4799

Live tracking and technical data element details for STARLINK-3130 (NORAD 49437). STARLINK-3130 can be tracked NOW for your location showing map with azimuth and elevation plus other details from your city location.

Track the satellite on the map from your city or location and see movement details for azimuth, elevation, latitude, longitude, range, height, and movement on the map or in text.







IsCatalogInMostPopularTable: catalog: 49437, numindb: 1
Update: records affected: 1



GetName: 49437 STARLINK-3130

Hit Count: updated at: Wed, 08 Dec 2021 16:32:32 GMT